Albany, NY

8:30 PM EST on December 12, 2019 (GMT -0500)
Albany International

Weather History for KALB - August, 2019

Change the Weather History Date:

Wednesday, August 14, 2019

  Actual Average Record
Temperature  
Mean Temperature 75 °F 71 °F  
Max Temperature 84 °F 81 °F 97 °F (1947)
Min Temperature 66 °F 60 °F 44 °F (1941)
Degree Days  
Heating Degree Days 0 0  
Month to date heating degree days 0 0  
Since 1 June heating degree days 27 57  
Since 1 July heating degree days 0 5  
Cooling Degree Days 10 6  
Month to date cooling degree days 108 93  
Year to date cooling degree days 614 459  
Since 1 June cooling degree days 592 429  
Growing Degree Days 25 (Base 50)    
Moisture  
Dew Point 59 °F    
Average Humidity 65    
Maximum Humidity 90    
Minimum Humidity 40    
Precipitation  
Precipitation 0.00 in 0.11 in 1.21 in (1999)
Month to date precipitation 2.04 1.70  
Year to date precipitation 26.90 24.39  
Sea Level Pressure  
Sea Level Pressure 29.87 in    
Wind  
Wind Speed 5 mph (North)    
Max Wind Speed 12 mph    
Max Gust Speed 15 mph    
Visibility 10 miles    
Events      
T = Trace of Precipitation, MM = Missing Value Source: NWS Daily Summary

Daily Weather History Graph

Daily Weather History Graph

Search for Another Location

Airport or City:

Astronomy

Aug. 14, 2019 Rise Set
Actual Time 6:00 AM EDT 7:58 PM EDT
Civil Twilight 5:29 AM EDT 8:29 PM EDT
Nautical Twilight 4:52 AM EDT 9:06 PM EDT
Astronomical Twilight 4:11 AM EDT 9:47 PM EDT
Moon 7:52 PM EDT (8/14) 4:52 AM EDT (8/14)
Length of Visible Light 14h 59m
Length of Day
13h 58m
Waxing Gibbous, 99% of the Moon is Illuminated
Aug 14
Waxing Gibbous
Aug 15
Full
Aug 23
Last Quarter
Aug 30
New
Sep 5
First Quarter

Hourly Weather History & Observations

Time (EDT) Temp. Heat Index Dew Point Humidity Pressure Visibility Wind Dir Wind Speed Gust Speed Precip Events Conditions
12:51 AM 69.1 °F - 66.0 °F 90% 29.81 in 10.0 mi North 5.8 mph - N/A   Scattered Clouds
1:51 AM 69.1 °F - 66.0 °F 90% 29.81 in 10.0 mi North 4.6 mph - N/A   Mostly Cloudy
2:51 AM 68.0 °F - 63.0 °F 84% 29.80 in 10.0 mi North 4.6 mph - N/A   Overcast
3:51 AM 66.9 °F - 61.0 °F 81% 29.81 in 10.0 mi North 3.5 mph - N/A   Overcast
4:51 AM 66.9 °F - 60.1 °F 79% 29.82 in 10.0 mi North 5.8 mph - N/A   Overcast
5:51 AM 66.9 °F - 60.1 °F 79% 29.84 in 10.0 mi NNW 4.6 mph - N/A   Overcast
6:51 AM 66.9 °F - 60.1 °F 79% 29.86 in 10.0 mi NNW 4.6 mph - N/A   Overcast
7:51 AM 66.9 °F - 60.1 °F 79% 29.87 in 10.0 mi NNW 8.1 mph - N/A   Overcast
8:51 AM 68.0 °F - 57.9 °F 70% 29.88 in 10.0 mi North 9.2 mph - N/A   Mostly Cloudy
9:51 AM 71.1 °F - 59.0 °F 66% 29.89 in 10.0 mi North 5.8 mph - N/A   Mostly Cloudy
10:51 AM 75.0 °F - 59.0 °F 57% 29.89 in 10.0 mi NNE 6.9 mph - N/A   Scattered Clouds
11:51 AM 77.0 °F - 60.1 °F 56% 29.88 in 10.0 mi North 3.5 mph - N/A   Scattered Clouds
12:51 PM 80.1 °F 80.7 °F 59.0 °F 48% 29.87 in 10.0 mi Variable 3.5 mph - N/A   Partly Cloudy
1:51 PM 81.0 °F 80.7 °F 55.0 °F 41% 29.86 in 10.0 mi NNW 3.5 mph - N/A   Partly Cloudy
2:51 PM 82.0 °F 81.7 °F 57.0 °F 42% 29.87 in 10.0 mi NNE 4.6 mph - N/A   Mostly Cloudy
3:51 PM 82.9 °F 82.1 °F 55.9 °F 39% 29.88 in 10.0 mi NE 5.8 mph - N/A   Mostly Cloudy
4:51 PM 82.0 °F 81.6 °F 55.9 °F 41% 29.87 in 10.0 mi NE 6.9 mph - N/A   Mostly Cloudy
5:51 PM 82.0 °F 81.4 °F 55.0 °F 39% 29.87 in 10.0 mi East 3.5 mph - N/A   Mostly Cloudy
6:51 PM 79.0 °F - 57.9 °F 48% 29.88 in 10.0 mi NE 5.8 mph - N/A   Mostly Cloudy
7:51 PM 79.0 °F - 57.0 °F 47% 29.88 in 10.0 mi Calm Calm - N/A   Mostly Cloudy
8:51 PM 72.0 °F - 57.9 °F 61% 29.90 in 10.0 mi WNW 3.5 mph - N/A   Mostly Cloudy
9:51 PM 71.1 °F - 61.0 °F 70% 29.93 in 10.0 mi North 4.6 mph - N/A   Mostly Cloudy
10:51 PM 70.0 °F - 55.0 °F 59% 29.95 in 10.0 mi North 8.1 mph - N/A   Mostly Cloudy
11:51 PM 69.1 °F - 53.1 °F 57% 29.96 in 10.0 mi North 6.9 mph - N/A   Mostly Cloudy